Date,TemperatureHighF,TemperatureAvgF,TemperatureLowF,DewpointHighF,DewpointAvgF,DewpointLowF,HumidityHigh,HumidityAvg,HumidityLow,PressureMaxIn,PressureMinIn,WindSpeedMaxMPH,WindSpeedAvgMPH,GustSpeedMaxMPH,PrecipitationSumIn
2014-1-1,41.4,38.3,36.4,21.0,18.7,15.2,52,45,34,30.33,30.20,7,4,0,0.00
2014-1-8,52.3,51.5,50.7,50.6,48.1,42.5,97,89,70,30.23,30.15,9,4,0,0.00
2014-1-9,62.1,54.8,49.9,60.8,50.8,30.2,100,89,33,30.24,30.03,10,2,0,0.00
2014-1-10,72.0,65.1,60.8,60.8,47.7,33.3,100,58,25,30.04,29.79,17,6,0,0.00
2014-1-13,64.7,56.0,43.0,11.4,-5.8,-16.2,20,8,5,30.23,30.10,19,8,0,0.00
2014-1-14,67.9,52.6,39.6,10.3,-3.7,-15.1,28,10,5,30.46,30.05,20,7,0,0.00
2014-1-15,60.0,47.2,36.2,15.0,-3.9,-16.8,31,13,5,30.55,30.21,17,6,0,0.00
2014-1-16,68.7,52.8,41.9,19.1,1.4,-13.2,35,14,5,30.33,30.09,14,5,0,0.00
2014-1-17,57.1,48.1,38.8,18.5,-4.8,-16.4,32,12,6,30.46,30.31,11,3,0,0.00
2014-1-18,66.8,51.9,39.4,32.9,7.4,-12.9,45,19,6,30.35,30.11,21,4,0,0.00
2014-1-19,67.9,53.9,35.1,28.4,2.7,-13.9,42,15,5,30.41,30.15,11,3,0,0.00
2014-1-20,77.8,60.7,48.7,28.6,7.3,-12.6,38,15,4,30.30,29.87,26,8,0,0.00
2014-1-21,56.3,47.1,37.7,18.0,-1.1,-18.5,40,15,5,30.53,30.29,16,4,0,0.00
2014-1-22,67.8,50.3,28.7,19.6,3.8,-15.4,63,20,5,30.32,30.02,9,3,0,0.00
2014-1-23,52.1,35.5,21.0,23.6,10.3,-10.5,73,39,11,30.83,30.12,17,8,0,0.00
2014-1-24,37.2,28.8,21.7,12.7,-9.4,-25.8,65,20,8,30.84,30.43,14,4,0,0.00
2014-1-25,65.6,47.4,29.5,15.5,3.4,-13.0,50,21,4,30.44,30.07,22,6,0,0.00
2014-1-26,78.9,61.6,45.7,24.6,4.7,-11.1,37,13,4,30.06,29.72,25,6,0,0.00
2014-1-27,57.8,41.9,28.2,14.6,-10.6,-23.4,32,11,5,30.41,29.87,18,8,0,0.00
2014-1-28,38.1,29.0,22.6,8.3,-14.5,-26.6,46,16,7,30.59,30.37,13,5,0,0.00
2014-1-29,45.3,33.4,22.2,9.7,-7.9,-23.5,58,21,6,30.61,30.31,12,3,0,0.00
2014-1-30,59.8,45.6,29.3,42.6,21.9,-4.4,68,40,20,30.32,29.91,18,5,0,0.00
2014-1-31,76.6,62.2,51.1,50.1,38.0,14.5,94,50,10,29.98,29.81,13,6,0,0.00